Regional Weather Roundup
Issued by NWS

Home | Current Version | Previous Version | Graphics & Text | Print | Product List | Glossary On
Versions: 1 2 3 4 5 6 7 8 9 10 11 12 13 14 15 16 17 18 19 20 21 22 23 24 25 26 27 28 29 30 31 32 33 34 35 36 37 38 39 40 41 42 43 44 45 46 47 48 49 50
000
ASUS43 KLOT 011058
RWRIL

ILLINOIS REGIONAL WEATHER ROUNDUP
NATIONAL WEATHER SERVICE CHICAGO/ROMEOVILLE IL
600 AM CDT MON SEP 01 2014

NOTE: "FAIR" INDICATES FEW OR NO CLOUDS BELOW 12,000 FEET WITH NO
SIGNIFICANT WEATHER AND/OR OBSTRUCTIONS TO VISIBILITY.

* THESE STATIONS ARE NOT UNDER NWS QUALITY CONTROL. THEY ALSO MAY NOT
  REPORT WEATHER SUCH AS PRECIPITATION OR FOG.

ILZ001-002-007-009-015-016-024-011200-
NORTHWEST ILLINOIS

CITY           SKY/WX    TMP DP  RH WIND       PRES   REMARKS
MOLINE         CLOUDY    66  64  93 SE15      29.70F
$$

ILZ003-004-008-010-011-017-018-011200-
NORTH CENTRAL ILLINOIS

CITY           SKY/WX    TMP DP  RH WIND       PRES   REMARKS
ROCKFORD       CLOUDY    70  63  78 E10       29.71F
$$

ILZ005-006-012>014-019>023-011200-
NORTHEAST ILLINOIS

CITY           SKY/WX    TMP DP  RH WIND       PRES   REMARKS
CHICAGO-OHARE  CLOUDY    74  67  78 S10       29.79F
CHICAGO-MIDWAY CLOUDY    75  71  87 S12       29.79F
AURORA         CLOUDY    73  69  87 SE7       29.77F
WAUKEGAN       MOCLDY    72  69  90 S9        29.77F
DUPAGE AIRPORT CLOUDY    73  70  90 S12       29.78F
WHEELING       CLOUDY    74  70  87 S9        29.79F
NORTHERLY ISL    N/A     74  69  85 SW12        N/A
$$

LMZ740>746-011200-
SOUTHERN LAKE MICHIGAN

STATION/POSITION SKY/WX   TEMP    WIND        PRES    VSBY  WAVE
                          AIR SEA DIR/SP/G                  HT/PER
                          (F)     (DEG/KT/KT) (MB)    (MI)  (FT/S)
SOUTHERN BUOY              72 70  180/ 16/ 17 1009.1F         3/ 4
WAUKEGAN HARBOR            71     200/ 10/ 11   N/A
HARRISON CRIB              72     180/ 14/ 16   N/A
BURNHAM HARBOR             73     180/  8/ 12   N/A
CALUMET HARBOR             73     170/  9/ 15 1007.9F
MICHIGAN CITY              72     150/ 12/ 19   N/A
MICHIGAN CITY 6N           72 72  170/ 12/ 16   N/A           1/ 2
ST. JOSEPH                 72 72  160/ 12/ 14   N/A           1/ 3
$$

ILZ025>027-034>036-040-047-049-050-058-095>099-011200-
WEST-CENTRAL ILLINOIS

CITY           SKY/WX    TMP DP  RH WIND       PRES   REMARKS
$$

ILZ028>032-037-038-041>044-048-051>054-059>061-011200-
CENTRAL ILLINOIS

CITY           SKY/WX    TMP DP  RH WIND       PRES   REMARKS
PEORIA         MOCLDY    72  66  81 SE6       29.79F
SPRINGFIELD    PTCLDY    75  71  87 S13G20    29.83S
TAYLORVILLE    NOT AVBL
$$

ILZ033-039-045-046-055>057-062-063-011200-
EAST-CENTRAL ILLINOIS

CITY           SKY/WX    TMP DP  RH WIND       PRES   REMARKS
CHAMPAIGN      MOCLDY    72  71  97 S9        29.87F FOG
$$

ILZ079-100>102-011200-
SOUTHWEST ILLINOIS

CITY           SKY/WX    TMP DP  RH WIND       PRES   REMARKS
BELLEVILLE     MOCLDY    73  73 100 VRB3      29.89R
$$

ILZ064>066-069>071-074>076-080>082-084>086-088>090-092>094-011200-
SOUTH-CENTRAL ILLINOIS

CITY           SKY/WX    TMP DP  RH WIND       PRES   REMARKS
CARBONDALE     CLOUDY    75  71  87 SW13      29.96R
$$

ILZ067-068-072-073-078-083-087-091-011200-
SOUTHEAST ILLINOIS

CITY           SKY/WX    TMP DP  RH WIND       PRES   REMARKS
LAWRENCEVILLE  CLOUDY    73  73 100 S10       29.94S
$$

ABBREVIATIONS USED IN REMARKS
   TC - TEMPERATURE IN CELSIUS
  WCI - WIND CHILL INDEX
   HX - HEAT INDEX
  VSB - VISIBILITY
$$




USA.gov is the U.S. government's official web portal to all federal, state and local government web resources and services.